Regional Weather Roundup
Issued by NWS Sterling, VA

Home | Current Version | Previous Version | Graphics & Text | Print | Product List | Glossary On
Versions: 1 2 3 4 5 6 7 8 9 10 11 12 13 14 15 16 17 18 19 20 21 22 23 24 25 26 27 28
000
ASUS41 KLWX 250711
RWRLWX

REGIONAL WEATHER ROUNDUP
NATIONAL WEATHER SERVICE BALTIMORE MD/WASHINGTON DC
300 AM EDT FRI MAY 25 2018

Note: "FAIR" indicates few or no clouds below 12,000 feet
with no significant weather and/or obstructions to visibility.
 TC=TEMPERATURE CELSIUS

 * =Non NWS site. Station does not report precipitation (e.g. rain,
    snow, etc.), thunder, or fog.

DCZ001-MDZ009-015-VAZ040>042-051-053>054-250800-
WASHINGTON METRO

CITY           SKY/WX    TMP DP  RH WIND       PRES   REMARKS
WASHINGTON NAT FAIR      66  60  81 S7        30.12F
DULLES         FAIR      60  57  89 CALM      30.11F
ANDREWS AFB    FAIR      62  58  86 CALM      30.11F
FT BELVOIR     FAIR      57  56  96 CALM      30.11F
QUANTICO       FAIR      62  60  93 NW7       30.12F
COLLEGE PARK*  FAIR      56  55  94 CALM      30.11S
LEESBURG*      FAIR      59  55  88 CALM      30.11F
MANASSAS*      FAIR      56  55  97 CALM      30.12F
GAITHERSBURG*  FAIR      57  55  93 CALM      30.12F

$$

MDZ006>007-011-014-250800-
BALTIMORE METRO

CITY           SKY/WX    TMP DP  RH WIND       PRES   REMARKS
BWI AIRPORT    FAIR      61  52  72 SW5       30.10F
MD SCIENCE CTR   N/A     68  53  58 MISG      30.11F
MARTIN STATE   FAIR      63  59  88 CALM      30.11F
ANNAPOLIS      FAIR      66  61  84 CALM      30.10F
FORT MEADE*    FAIR      52  52 100 CALM      30.13F

$$

MDZ012-015-019>023-250800-
MARYLAND EASTERN SHORE

CITY           SKY/WX    TMP DP  RH WIND       PRES   REMARKS
OCEAN CITY     FAIR      60  59  96 SW6       30.13F
SALISBURY      FAIR      57  56  96 CALM      30.12F
BAY BRIDGE AP* FAIR      68  64  88 S5        30.11F
CAMBRIDGE*     CLEAR     63  61  94 CALM      30.12F
EASTON*        FAIR      65  62  90 S3        30.15F

$$

MDZ017>025-250800-
SOUTHERN MARYLAND

CITY           SKY/WX    TMP DP  RH WIND       PRES   REMARKS
PATUXENT RIVER FAIR      70  62  76 SW9       30.11F
ST INIGOES     FAIR      63  62  97 CALM      30.11F
LEONARDTOWN*   FAIR      63  59  88 CALM      30.14S

$$

MDZ003>005-250800-
NORTH CENTRAL MARYLAND

CITY           SKY/WX    TMP DP  RH WIND       PRES   REMARKS
FREDERICK*     FAIR      57  57 100 CALM      30.13F
HAGERSTOWN APT FAIR      64  51  62 S5        30.10F
WESTMINSTER*   FAIR      66  52  59 SW3       30.11F

$$

MDZ501>502-250800-
WESTERN MARYLAND

CITY           SKY/WX    TMP DP  RH WIND       PRES   REMARKS
OAKLAND*       FAIR      59  46  63 S9        30.16F
CUMBERLAND*    FAIR      55  54  94 CALM      30.15F

$$

VAZ025>031-250800-
SHENANDOAH VALLEY

CITY           SKY/WX    TMP DP  RH WIND       PRES   REMARKS
WINCHESTER*    FAIR      59  50  72 SW6       30.13S
FRONT ROYAL*   FAIR      55  52  88 S5        30.11F
LURAY*         FAIR      55  54  94 CALM      30.14F
NEW MARKET*    FAIR      55  53  95 CALM      30.13F
STAUNTON*      FAIR      54  53  95 CALM      30.17F
WAYNESBORO*    FAIR      57  54  89 S5        30.16F

$$

WVZ021-048>050-054>055-250800-
EASTERN WEST VIRGINIA PANHANDLE

CITY           SKY/WX    TMP DP  RH WIND       PRES   REMARKS
MARTINSBURG    FAIR      56  53  90 CALM      30.09F
PETERSBURG*    FAIR      53  53  98 CALM      30.13F

$$

VAZ036>039-050-250800-
CENTRAL FOOTHILLS

CITY           SKY/WX    TMP DP  RH WIND       PRES   REMARKS
CHARLOTTESVILL FAIR      59  56  89 CALM      30.13F
CULPEPER*      FAIR      55  54  95 CALM      30.13F
ORANGE*        FAIR      55  54  94 CALM      30.13F
GORDONSVILLE*  FAIR      56  56 100 SW3       30.12F
WARRENTON*     FAIR      55  52  90 CALM      30.11F

$$

VAZ055>057-250800-
NORTH AND CENTRAL PIEDMONT

CITY           SKY/WX    TMP DP  RH WIND       PRES   REMARKS
FREDERICKSBRG* FAIR      59  58  94 CALM      30.11F
STAFFORD*      FAIR      54  54 100 CALM      30.15F

$$

NCZ024-NYZ072-PAZ021-071-VAZ022-071-250800-
OTHER REGIONAL OBSERVATIONS

CITY           SKY/WX    TMP DP  RH WIND       PRES   REMARKS
NEW YORK CITY  FAIR      67  49  52 W5        30.09F
PHILADELPHIA   FAIR      63  56  78 S3        30.10F
PITTSBURGH     FAIR      57  53  86 CALM      30.08F
ROANOKE        MOCLDY    65  58  78 NW3       30.17F
RICHMOND       FAIR      65  60  84 CALM      30.13S
RALEIGH        MOCLDY    65  65 100 CALM      30.15S

$$

ANZ530>537-250800-
MARINE OBSERVATIONS

STATION/POSITION TIME  TEMP    WIND        PRES
                       AIR SEA DIR/SP/G
                 (UTC) (F)     (DEG/KT/KT) (MB)
THOMAS PT LIGHT  0700   69 69  200/ 12/ 12 1020.3F
BALT KEY BRIDGE  0636          230/  4/  5 1019.4F
COVE POINT       0636          210/  9/ 11 1020.5F
LEWISETTA        0648      76  220/  7/  8 1019.9F
SOLOMONS ISLAND  0648      72  210/ 10/ 11 1019.5F
PINEY POINT      0636          210/  6/  7   N/A

$$





USA.gov is the U.S. government's official web portal to all federal, state and local government web resources and services.